Regional Weather Roundup
Issued by NWS Newport/Morehead, NC

Current Version | Previous Version | Text Only | Print | Product List | Glossary On
Versions: 1 2 3 4 5 6 7 8 9 10 11 12 13 14 15 16 17 18 19 20 21 22 23 24 25 26 27 28 29 30 31 32 33 34 35 36 37 38 39 40 41 42 43 44 45 46 47 48 49 50
091 ASUS42 KMHX 240413 RWRMHX WEATHER ROUNDUP FOR EASTERN NORTH CAROLINA NATIONAL WEATHER SERVICE NEWPORT/MOREHEAD CITY NC 1100 PM EST MON JAN 23 2017 NOTE: "FAIR" INDICATES FEW OR NO CLOUDS BELOW 12,000 FEET WITH NO SIGNIFICANT WEATHER AND/OR OBSTRUCTIONS TO VISIBILITY NCZ015>017-031-032-045>047-102-103-240500- NORTH COAST CITY SKY/WX TMP DP RH WIND PRES REMARKS EDENTON CLOUDY 51 48 90 NW13 29.35R ELIZABETH CITY CLOUDY 49 47 93 NW14 29.32R KITTY HAWK NOT AVBL MANTEO CLOUDY 50 50 100 NW9G20 29.29S $$ NCZ045>047-081-094-103-104-240500- CENTRAL COAST CITY SKY/WX TMP DP RH WIND PRES REMARKS FRISCO CLOUDY 54 51 90 NW13G22 29.29R $$ NCZ095-097-098-100-101-240500- SOUTHERN COAST CITY SKY/WX TMP DP RH WIND PRES REMARKS BEAUFORT MOCLDY 54 51 90 W13 29.35R CEDAR ISLAND NOT AVBL JACKSONVILLE CLOUDY 53 53 100 NW8 29.38R PINEY ISLAND MOCLDY N/A N/A N/A W12 29.32R WILMINGTON PTCLDY 51 50 96 W10 29.41R $$ NCZ011>013-027>030-043-044-078>080-089-090>093-098-240500- COASTAL PLAIN CITY SKY/WX TMP DP RH WIND PRES REMARKS AHOSKIE N/A 45 43 94 NW3 29.39R CLINTON CLOUDY 50 47 87 NW8 29.44R ELIZABETHTOWN CLOUDY 52 48 84 NW8 29.44R GOLDSBORO CLOUDY 49 48 98 NW10G18 29.41R GREENVILLE CLOUDY 48 45 87 N13G18 29.45R HAVELOCK CLOUDY 53 50 89 W12 29.37R KENANSVILLE CLOUDY 50 46 87 N13 29.42R KINSTON CLOUDY 49 46 88 NW12 29.41R NEW BERN CLOUDY 52 49 89 NW15G23 29.38R RICHLANDS CLOUDY 52 51 97 VRB5 29.40R ROCKY MOUNT CLOUDY 46 42 86 N13G25 29.43R WASHINGTON CLOUDY 48 46 91 NW10G17 N/A WHITEVILLE PTCLDY 52 48 86 W3 29.43R $$ AMZ130-135-150-152-154-156-158-170-250-252-270-ANZ085-086-088-633-658-670-240500- MARINE OBSERVATIONS STATION/POSITION TIME TEMP WIND PRES WAVE SWELL AIR SEA DIR/SP/G HT/PER HT/PER (UTC) (F) (DEG/KT/KT) (MB) (FT/S) (FT/S) CHESAPEAKE LIGHT NOT AVBL 64 E VA BEACH 0350 51 54 280/ 14/ 17 989.7 14/11 13/11 DUCK 0348 49 47 320/ 14/ 19 990.9 2 E DUCK 0330 47 N/A 7/13 5/13 OREGON INLET 0342 51 50 300/ 12/ 15 991.1 13E OREGON INLT NOT AVBL HATTERAS CG 0348 280/ 20/ 25 991.3 DIAMOND BUOY 0350 61 76 300/ 23/ 29 990.8 7/11 7/11 CAPE LOOKOUT 0300 54 280/ 12/ 15 992.7 BEAUFORT LAB 0348 270/ 4/ 12 992.7 30 SE NEW RVR IN 0308 55 68 300/ 17/ 23 994.3 30 SE NEW RVR IN 0343 67 N/A 6/11 2/11 27 SE WRIGHTSVLE 0308 57 67 300/ 14/ 19 993.0 5 SE WRIGHTSVLE 0308 54 55 280/ 10/ 16 995.0 225 S CAPE HAT 0350 68 71 290/ 25/ 31 994.4 16/10 13/10 41 SE CHARLESTON 0250 62 68 280/ 19/ 25 996.7 8/ 8 5/ 8 $$

USA.gov is the U.S. government's official web portal to all federal, state and local government web resources and services.